Tracking 30995 objects as of 5-Jul-2025
HD Live streaming from Space Station
objects crossing your sky now

STARLINK-32453

Track STARLINK-32453 now!
10-day predictions
STARLINK-32453 is classified as:


NORAD ID: 61671
Int'l Code: 2024-193L
Perigee: 481.6 km
Apogee: 483.3 km
Inclination: 53.2 °
Period: 94.1 minutes
Semi major axis: 6853 km
RCS: Unknown
Launch date: October 26, 2024
Source: United States (US)
Launch site: AIR FORCE EASTERN TEST RANGE (AFETR)
Your satellite tracking list
STARLINK-31688
Track 1 satellite(s)




NASA's NSSDC Master Catalog

Two Line Element Set (TLE):
1 61671U 24193L   25186.31425382 -.00002010  00000-0 -55790-4 0  9995
2 61671  53.1602 159.9489 0001219  88.3747 271.7394 15.30176464 38657
Source of the keplerian elements: AFSPC